User: anonymous   Login
Location: Unspecified
(0.0000°N, 0.0000°E)
Time: 03:31:25
(UTC+00:00)
Language:

TIANWANG 1A (TW-1A) - Orbit

View from above orbital plane
View from above orbital plane
View from above satellite
View from above satellite

Ground track
Ground track

The orbit data is extracted from the following two-line orbital elements,

1 40928U 15051D   17173.89187589 +.00003244 +00000-0 +94207-4 0  9998
2 40928 097.2273 209.6044 0012806 169.2992 316.7237 15.36134255097577
Epoch (UTC): 22 June 2017 21:24:18
Eccentricity: 0.0012806
inclination: 97.2273°
perigee height: 449 km
apogee height: 466 km
right ascension of ascending node: 209.6044°
argument of perigee: 169.2992°
revolutions per day: 15.36134255
mean anomaly at epoch: 316.7237°
orbit number at epoch: 9757

The dashed part of the orbit path shows where the satellite is in the earth's shadow,  

DLR